Location: Red Shale Campground
(45.5700°N, 106.1600°W)
Time: 01:03:03
(UTC-06:00)

Daily predictions for brighter satellites

Satellite Brightness Start Highest point End
(mag) Time Altitude Azimuth Time Altitude Azimuth Time Altitude Azimuth
Cosmos 2369 Rocket 3.1 00:01:13 10° NNW 00:06:28 38° NE 00:07:11 37° ENE
Cosmos 1603 4.4 00:08:35 42° ENE 00:08:35 42° ENE 00:12:54 10° NE
Meteor 1-18 Rocket 4.2 00:07:37 84° WSW 00:07:44 85° W 00:13:41 10° N
Cosmos 2297 4.5 00:04:17 10° NW 00:09:23 40° WSW 00:09:23 40° WSW
Cosmos 1943 Rocket 3.9 00:05:03 10° N 00:09:40 25° NE 00:11:29 21° ENE
CZ-4C R/B 4.0 00:07:57 10° WNW 00:13:57 28° WSW 00:14:50 28° WSW
Nadezhda 1 Rocket 4.3 00:15:19 50° E 00:15:19 50° E 00:21:15 10° NNE
ATLAS CENTAUR R/B 2.9 00:22:04 35° NNW 00:22:04 35° NNW 00:25:14 10° NNE
Cosmos 1975 4.4 00:17:39 10° NNW 00:20:01 33° NNW 00:20:01 33° NNW
Cosmos 2184 Rocket 3.9 00:26:04 10° N 00:32:29 82° W 00:32:43 80° SW
SL-16 R/B 3.1 00:31:30 38° W 00:32:47 44° WNW 00:38:15 10° NNE
Cosmos 2327 Rocket 4.3 00:26:55 10° N 00:33:02 85° W 00:33:02 85° W
NOSS 2-3 (D) 4.3 00:35:54 66° N 00:35:54 66° N 00:41:00 10° NE
Cosmos 1607 4.1 00:34:11 10° NW 00:40:04 62° W 00:40:04 62° W
CZ-2C R/B 2.7 00:43:44 10° NNE 00:48:53 77° N 00:48:53 77° N
Meteor 2-9 Rocket 4.4 00:44:50 10° N 00:49:32 63° NE 00:49:32 63° NE
Cosmos 1125 Rocket 4.4 00:45:54 10° NNW 00:49:56 41° WNW 00:49:56 41° WNW
Cosmos 1241 Rocket 4.4 00:56:02 83° SE 00:56:06 83° ESE 01:02:44 10° NE
Cosmos 1610 Rocket 4.4 00:49:51 10° N 00:56:15 77° W 00:56:20 77° WSW
Cosmos 2074 Rocket 4.4 00:54:28 10° NNW 01:00:24 49° W 01:00:27 49° W
ATLAS 2AS CENTAUR R/B 3.3 00:58:37 38° WSW 01:01:54 64° NW 01:10:02 10° NE
Cosmos 2341 Rocket 4.0 00:56:21 10° N 01:02:35 70° E 01:02:46 70° E
Cosmos 540 Rocket 4.1 01:09:32 48° NW 01:09:32 48° NW 01:14:11 10° NNE
NOSS 3-2 (A) 4.0 01:04:10 10° NW 01:11:37 78° NE 01:13:54 51° SE
Cosmos 2154 Rocket 3.9 01:05:52 10° NNW 01:12:09 76° W 01:12:09 76° W
Cosmos 2058 Rocket 4.5 01:11:54 10° N 01:14:57 34° NE 01:14:57 34° NE
CZ-2C R/B 4.2 01:17:36 32° WNW 01:17:36 32° WNW 01:20:58 10° NNW
Cosmos 1238 Rocket 3.8 01:18:50 67° NW 01:18:50 67° NW 01:24:32 10° N
Cosmos 44 Rocket 4.2 01:15:05 10° NNW 01:18:21 44° NNW 01:18:21 44° NNW
ATLAS 3B R/B 3.5 01:18:42 10° NW 01:23:38 35° W 01:23:38 35° W
Cosmos 1943 3.2 01:25:23 76° N 01:25:23 76° N 01:30:38 10° NNE
Meteor 1-15 Rocket 4.2 01:19:43 10° NNW 01:25:10 78° NNW 01:25:10 78° NNW
Meteor 2-4 Rocket 3.9 01:28:10 62° NW 01:28:10 62° NW 01:33:08 10° N
CZ-4B R/B 4.2 01:34:49 16° NNW 01:34:49 16° NNW 01:35:33 10° NNW
Cosmos 2228 4.1 01:33:19 10° N 01:36:34 43° NNE 01:36:34 43° NNE
COSMOS 2455 3.3 01:33:22 10° NNW 01:39:20 58° NE 01:40:43 47° E
Cosmos 2369 Rocket 3.3 01:45:21 10° NW 01:48:57 31° WNW 01:48:57 31° WNW
Cosmos 1943 Rocket 2.5 01:48:17 10° NNW 01:52:58 55° WNW 01:52:58 55° WNW
H-2A R/B 3.8 01:50:09 10° NNE 01:52:25 34° N 01:52:25 34° N
Cosmos 724 4.2 01:47:59 10° NW 01:54:07 88° SW 01:54:07 88° SW
Cosmos 2366 rocket 3.9 01:49:28 10° N 01:55:48 82° E 01:56:23 73° SE
Cosmos 2218 Rocket 3.8 01:51:32 10° N 01:57:47 87° W 01:58:06 81° SSW
Cosmos 2181 Rocket 4.1 01:59:09 61° WSW 01:59:40 63° WNW 02:06:05 10° N
Cosmos 864 Rocket 4.4 01:55:12 10° N 02:01:35 85° E 02:02:16 73° SSE
USA 215 3.6 01:57:02 10° ENE 02:03:19 47° SE 02:03:24 47° SE
SL-8 Rocket 3.9 01:59:23 10° NNW 02:05:29 65° W 02:05:36 64° W
SL-16 R/B 4.1 02:11:12 10° ESE 02:16:28 31° ENE 02:21:45 10° N
CENTAUR R/B 3.4 02:12:56 10° NW 02:20:39 66° NE 02:28:59 10° SE
Cosmos 1680 Rocket 3.4 02:21:31 79° E 02:21:31 79° E 02:26:44 10° NNE
Cosmos 1809 Rocket 4.3 02:15:40 10° NNW 02:21:44 68° W 02:22:04 66° WSW
Lacrosse 5 rocket 2.9 02:23:22 32° E 02:23:22 32° E 02:26:30 10° ENE
NOSS 3-2 (C) 4.0 02:16:59 10° NW 02:24:18 57° WSW 02:25:16 54° SSW
Cosmos 1656 Rocket 3.5 02:22:21 10° NNW 02:27:26 71° W 02:27:26 71° W
Helios 1A Rocket 3.6 02:24:11 10° NNE 02:27:23 54° N 02:27:23 54° N
Cosmos 1812 Rocket 3.9 02:24:25 10° N 02:28:24 65° NE 02:28:24 65° NE
Cosmos 1766 4.1 02:25:32 10° N 02:28:40 49° NNE 02:28:40 49° NNE
Aureole 1 Rocket 3.3 02:31:15 67° N 02:31:15 67° N 02:34:40 10° NNE
SL-27 R/B 4.3 02:32:04 29° ENE 02:32:04 29° ENE 02:34:21 10° NE
SL-08 R/B 3.8 02:32:03 49° ESE 02:32:49 55° ENE 02:37:31 10° N
COSMOS 2406 3.2 02:33:07 63° SSE 02:33:43 68° ESE 02:39:26 10° NNE
Cosmos 1066 Rocket 4.0 02:34:00 74° W 02:34:11 74° WNW 02:39:35 10° N
USA 267 3.9 02:30:47 10° ESE 02:37:08 56° NNE 02:43:31 10° NW
PSLV R/B 4.1 02:36:19 10° N 02:40:29 53° NW 02:40:29 53° NW
Nadezhda 3 Rocket 3.9 02:46:12 54° S 02:47:45 86° E 02:54:10 10° N
ARIANE 5 R/B 4.1 02:43:21 10° NE 02:47:47 27° E 02:49:59 21° SE
Cosmos 1544 3.9 02:44:53 10° N 02:47:53 49° NE 02:47:53 49° NE
Resurs 1-4 Rocket 3.5 02:44:49 10° NE 02:49:25 30° E 02:51:36 22° SE
Meteor 1-22 Rocket 4.0 02:44:02 10° NNW 02:49:28 64° W 02:49:41 63° WSW
DNEPR-1 R/B 4.5 02:45:49 10° NNW 02:49:55 46° NE 02:54:07 10° ESE
NOSS 2-2 (D) 4.3 02:51:29 42° ESE 02:51:29 42° ESE 02:55:38 10° NE
Cosmos 1371 Rocket 3.9 02:47:04 10° NNW 02:52:28 80° WSW 02:53:09 67° S
NOSS 3-4 (A) 3.9 02:50:30 41° W 02:52:30 57° NW 02:59:00 10° NNE
NOSS 3-4 (C) 3.9 02:50:37 41° W 02:52:36 57° NW 02:59:06 10° NNE
RESURS DK-1 2.8 02:56:10 55° NW 02:56:10 55° NW 02:59:55 10° NNE
Cosmos 1626 Rocket 4.1 02:56:17 46° WNW 02:56:17 46° WNW 03:00:07 10° N
Cosmos 192 4.2 02:56:03 76° SW 02:56:24 82° WNW 03:01:22 10° NNE
Meteor 1-4 Rocket 4.0 02:55:39 10° NNW 02:57:56 32° NW 02:57:56 32° NW
Cosmos 1825 Rocket 3.6 03:05:59 65° SE 03:06:27 72° E 03:10:50 10° NNE
NPP 3.6 03:03:42 10° NNE 03:09:07 85° WNW 03:10:25 54° SSW
NOSS 2-2 (C) 3.5 03:09:23 63° SE 03:09:34 64° ESE 03:14:13 10° NE
UNK 4.1 03:09:37 33° SE 03:11:31 62° ENE 03:16:02 10° N
COSMOS 2487 4.3 03:13:01 22° ESE 03:13:32 23° E 03:16:25 10° NE
CZ-2D R/B 2.8 03:08:53 10° NNE 03:13:59 47° E 03:16:20 29° SSE
Cosmos 1733 4.4 03:11:24 10° N 03:15:00 39° ENE 03:16:25 28° SE
AQUA 3.7 03:12:41 10° NNE 03:17:29 84° WNW 03:18:24 58° SSW
Cosmos 1697 Rocket 4.4 03:13:09 10° N 03:18:10 32° NE 03:23:10 10° ESE
Orbus 7S? 4.3 03:14:09 10° NW 03:18:44 43° NNE 03:21:28 10° ESE
Cosmos 1953 2.1 03:16:54 10° N 03:20:55 86° W 03:21:09 78° SSW
BREEZE-M DEB (TANK) 3.4 03:19:45 42° W 03:21:15 81° NNW 03:35:21 10° ENE
Cosmos 839 Rocket 4.1 03:16:32 10° NW 03:22:51 86° WSW 03:30:16 10° SSE
COSMOS 2455 4.0 03:19:56 10° NW 03:23:48 26° W 03:23:48 26° W
Cosmos 1818 3.5 03:24:10 47° SSW 03:25:47 83° ESE 03:31:17 10° NE
Cosmos 1821 Rocket 4.0 03:22:06 10° NNW 03:28:07 62° W 03:30:26 38° SSW
USA 161 4.2 03:29:05 10° ESE 03:31:07 18° ENE 03:33:07 10° NNE
Cosmos 2278 3.9 03:27:19 10° NNW 03:33:05 76° ENE 03:38:47 10° SSE
Cosmos 1271 Rocket 3.2 03:31:23 10° NNW 03:34:27 42° WNW 03:34:27 42° WNW
Cosmos 1656 4.2 03:32:52 10° NNW 03:38:14 57° ENE 03:43:35 10° SE
Okean O Rocket 4.5 03:38:10 10° ENE 03:39:37 11° E 03:41:04 10° ESE
Cosmos 1758 3.7 03:36:44 10° NNW 03:40:39 44° W 03:40:41 44° W
COBE Rocket 4.1 03:35:51 10° NNE 03:40:53 68° E 03:43:26 28° S
Cosmos-2242 3.1 03:37:34 10° N 03:42:00 80° E 03:44:24 26° SSE
Cosmos 2369 3.7 03:36:25 10° NNW 03:42:12 86° ENE 03:47:57 10° SSE
Cosmos 1934 Rocket 4.1 03:36:20 10° NNW 03:42:33 62° W 03:45:55 28° SSW
Abrixas 3.1 03:42:34 47° N 03:42:44 48° N 03:45:28 10° E
Cosmos 1805 4.2 03:39:23 10° NNW 03:42:26 31° WNW 03:42:26 31° WNW
ERS-1 4.4 03:38:21 10° NNE 03:43:21 82° WNW 03:45:27 36° SSW
IRS-1C 4.3 03:40:32 10° N 03:45:47 57° WNW 03:47:52 35° SW
Cosmos 921 Rocket 3.6 03:42:11 10° NNW 03:46:21 38° W 03:46:30 38° WSW
USA 215 3.5 03:40:01 10° NE 03:46:28 63° NNW 03:50:44 22° WSW
GEOS 3 Rocket 4.2 03:42:51 10° NE 03:48:01 51° ESE 03:50:51 26° S
Cosmos 1605 Rocket 3.9 03:42:51 10° N 03:49:04 78° W 03:53:41 18° S
Cosmos 1833 Rocket 3.6 03:47:42 17° S 03:51:35 42° ESE 03:56:52 10° NE
Cosmos 1980 Rocket 3.8 03:48:34 10° NNW 03:53:50 36° NE 03:59:02 10° ESE
Cosmos 389 Rocket 2.4 03:50:59 10° NNW 03:54:36 67° W 03:55:25 48° SSW
Cosmos 2056 Rocket 4.4 03:53:32 10° NW 03:58:02 28° W 03:58:34 28° WSW
ADEOS Rocket 3.1 03:52:20 10° NNE 03:58:29 77° WNW 04:03:00 23° SSW
Cosmos 1842 Rocket 4.3 03:54:41 10° N 03:59:02 54° ENE 04:03:22 10° SSE
Cosmos 2082 Rocket 2.8 03:55:15 19° S 03:59:13 54° ESE 04:04:45 10° NE
SL-16 R/B 2.7 03:56:11 23° SSW 03:59:50 51° W 04:05:50 10° NNW
Spot 4 Rocket 4.2 03:56:01 10° N 04:01:05 58° WNW 04:03:36 29° SW
Lacrosse 5 rocket 2.3 03:59:03 25° W 04:01:26 47° NNW 04:05:56 10° NE
Cosmos 1758 Rocket 4.1 04:01:09 33° WSW 04:02:22 41° WNW 04:06:30 10° N
Cosmos 2098 Rocket 2.0 03:59:36 10° NNW 04:02:28 58° W 04:02:32 57° WSW
NOSS 2-2 (E) 4.4 04:02:51 26° W 04:04:49 42° NW 04:09:39 10° NNE
CZ-2D R/B 3.7 04:02:15 10° NNE 04:06:17 63° E 04:08:57 20° S
SL-27 R/B 4.4 04:05:45 16° WNW 04:06:22 17° WNW 04:08:51 10° NNW
Cosmos 1378 3.3 04:05:53 23° S 04:08:03 70° E 04:11:47 10° NNE
CENTAUR R/B 3.6 04:04:03 10° NW 04:11:10 37° WSW 04:18:39 10° S
Cosmos 1707 2.9 04:17:37 28° SW 04:19:25 55° WNW 04:23:14 10° N
Meteor 2-5 Rocket 3.8 04:15:15 16° SSW 04:19:58 84° W 04:25:53 10° N
USA 267 3.3 04:13:45 10° SSE 04:20:09 56° SW 04:26:36 10° WNW
Cosmos 2100 Rocket 4.0 04:17:53 10° N 04:24:08 86° E 04:30:17 10° S
IRS-1D 4.1 04:19:18 10° N 04:24:13 42° WNW 04:27:28 20° SW
Cosmos 2173 Rocket 4.1 04:18:22 10° N 04:24:42 80° E 04:30:52 10° S
MOZ.5/SAFIR/RUBIN 5/SL-8 3.8 04:20:36 10° S 04:25:12 60° W 04:29:52 10° NNW
MOS 1 Rocket 3.3 04:20:53 10° NNE 04:25:16 77° E 04:29:40 11° S
Meteor 1-16 Rocket 4.0 04:20:28 10° NNW 04:25:48 69° W 04:31:03 10° S
Meteor 2-15 4.5 04:21:46 16° SSW 04:26:48 68° W 04:32:56 10° N
ARIANE 5 R/B 3.1 04:22:07 10° N 04:27:02 43° WNW 04:30:20 19° SW
Resurs 1-4 Rocket 2.7 04:24:27 10° N 04:29:20 39° WNW 04:32:41 19° SW
Meteor 2-1 Rocket 4.4 04:26:38 10° N 04:32:20 77° E 04:38:07 10° SSE
Cosmos 1452 Rocket 4.2 04:28:04 10° NW 04:32:44 34° W 04:37:20 10° SSW
Cosmos 1470 4.0 04:31:27 10° NW 04:34:33 23° W 04:35:43 20° WSW
ADEOS 4.3 04:30:36 10° N 04:35:21 36° WNW 04:38:47 17° WSW
Meteor 2-15 Rocket 4.5 04:31:27 12° SSW 04:37:09 67° W 04:43:16 10° N
CZ-4B R/B 4.2 04:34:28 10° NNE 04:38:41 45° E 04:43:00 10° S
EXPRESS MD2 3.8 04:39:03 10° WNW 04:44:15 37° SW 04:47:10 10° SSE
Cosmos 1420 Rocket 4.5 04:40:34 10° NW 04:45:30 40° WSW 04:50:24 10° S
COSMOS 2487 3.9 04:46:56 16° WSW 04:48:54 25° WNW 04:51:54 10° N
CZ-3 R/B 4.5 04:35:56 10° SW 04:49:20 19° S 04:55:36 10° SE
UNKNOWN OBJECT B 3.8 04:49:23 10° N 04:53:00 32° WNW 04:56:04 13° SW
Cosmos 1048 Rocket 4.1 04:48:40 12° SSW 04:53:21 63° WNW 04:58:28 10° NNE
CZ-2D R/B 3.3 04:49:29 10° N 04:53:48 26° WNW 04:57:40 12° WSW
Gbstr 26 Del rocket 4.3 04:52:05 10° WNW 05:00:00 78° SSW 05:06:40 10° SE
Cosmos 1076 Rocket 4.2 04:55:59 10° S 05:00:07 56° E 05:04:18 10° NNE
Cosmos 2360 4.3 04:54:26 10° NNW 05:00:13 89° NE 05:05:56 10° SSE
USA 161 3.0 04:59:30 14° SW 05:00:53 18° W 05:02:55 10° NW
Cosmos 2061 Rocket 4.1 04:55:23 10° NNW 05:01:30 59° W 05:07:32 10° S
Okean 3 Rocket 3.6 04:57:09 10° S 05:01:33 87° ESE 05:06:02 10° N
Cosmos 1697 Rocket 3.0 04:56:58 10° NW 05:02:17 45° WSW 05:07:35 10° S
Cosmos 1110 Rocket 4.1 04:57:35 10° NNW 05:02:57 89° WSW 05:08:14 10° SSE
Cosmos 2016 Rocket 4.0 04:57:02 10° NNW 05:03:17 74° W 05:09:35 10° S
MOS 1-B 4.5 04:58:12 10° N 05:03:56 64° WNW 05:09:39 10° SSW
Meteor 1-24 Rocket 3.9 05:01:12 10° SSW 05:06:39 57° WNW 05:12:20 10° N
Cosmos 2123 Rocket 4.2 05:01:47 10° S 05:08:05 80° E 05:14:23 10° N
Cosmos 1766 Rocket 4.4 05:08:09 10° S 05:12:31 54° E 05:16:53 10° NNE
CZ-4B DEB 4.4 05:10:07 10° NNE 05:15:39 82° ESE 05:21:08 10° SSW
Okean O Rocket 1.6 05:12:06 10° N 05:16:32 77° WNW 05:20:56 10° SSW
Abrixas 2.5 05:15:04 10° WNW 05:17:48 51° SSW 05:20:32 10° SE
IRS-1C Rocket 4.2 05:16:13 10° NNE 05:21:31 88° WNW 05:26:48 10° SSW
Cosmos 1674 2.9 05:18:00 10° S 05:21:48 78° E 05:25:39 10° NNE
PSLV R/B 4.3 05:18:49 10° N 05:22:48 49° WNW 05:26:48 10° SSW
